Location: Diati
(11.8376°N, 2.5966°E)
Time: 17:18:02
(UTC+00:00)

Cosmos 2298 Rocket - Pass Details

Date: 21 September 2020
Orbit: 776 x 783 km, 74.0° (Epoch: 19 October)

Event Time Altitude Azimuth Distance (km) Brightness Sun altitude
Rises 18:06:54 0° 186° (S) 3,257 7.3 -5.9°
Reaches altitude 10° 18:09:18 10° 183° (S) 2,330 6.5 -6.5°
Maximum altitude 18:14:32 64° 102° (ESE) 859 4.0 -7.8°
Drops below altitude 10° 18:19:47 10° 21° (NNE) 2,332 6.3 -9.1°
Sets 18:22:11 0° 18° (NNE) 3,260 7.1 -9.7°
